Regional Weather Roundup
Issued by NWS Sterling, VA

Home | Current Version | Previous Version | Graphics & Text | Print | Product List | Glossary On
Versions: 1 2 3 4 5 6 7 8 9 10 11 12 13 14 15 16 17 18 19 20 21 22 23 24 25 26 27 28 29 30 31 32 33 34 35 36 37 38 39 40 41 42 43 44 45 46 47 48 49 50
027
ASUS41 KLWX 231210
RWRLWX

REGIONAL WEATHER ROUNDUP
NATIONAL WEATHER SERVICE BALTIMORE MD/WASHINGTON DC
800 AM EDT SAT JUL 23 2016

Note: "FAIR" indicates few or no clouds below 12,000 feet
with no significant weather and/or obstructions to visibility.
 TC=TEMPERATURE CELSIUS

 * =Non NWS site. Station does not report precipitation (e.g. rain,
    snow, etc.), thunder, or fog.

DCZ001-MDZ009-015-VAZ040>042-051-053>054-231300-
WASHINGTON METRO

CITY           SKY/WX    TMP DP  RH WIND       PRES   REMARKS
WASHINGTON NAT FAIR      85  69  58 NW13      29.95S
DULLES         FAIR      82  68  62 NW6       29.97S
FT BELVOIR     FAIR      77  73  86 VRB1      29.96R
QUANTICO       FAIR      79  72  79 NW5       29.96R
COLLEGE PARK*  FAIR      82  68  61 NW6       29.95R
LEESBURG*      FAIR      82  72  69 NW8       29.98S
MANASSAS*      SUNNY     75  75 100 CALM      29.97R
GAITHERSBURG*  SUNNY     79  70  73 NW7       30.01S

$$

MDZ006>007-011-014-231300-
BALTIMORE METRO

CITY           SKY/WX    TMP DP  RH WIND       PRES   REMARKS
BWI AIRPORT    MOSUNNY   83  70  64 W8        29.94S
MD SCIENCE CTR   N/A     84  69  60 MISG      29.94S
MARTIN STATE   SUNNY     84  75  74 W9        29.94S HX  92
ANNAPOLIS      SUNNY     84  72  67 NW6       29.93S
FORT MEADE*    SUNNY     77  72  83 NW5       29.97S

$$

MDZ012-015-019>023-231300-
MARYLAND EASTERN SHORE

CITY           SKY/WX    TMP DP  RH WIND       PRES   REMARKS
OCEAN CITY     SUNNY     82  75  79 NW8       29.93R
SALISBURY      SUNNY     82  75  79 NW5       29.93R
BAY BRIDGE AP* SUNNY     82  73  74 NW9       29.94R
CAMBRIDGE*     SUNNY     81  73  78 CALM      29.93S
EASTON*        SUNNY     84  77  79 N3        29.98R HX  94

$$

MDZ017>025-231300-
SOUTHERN MARYLAND

CITY           SKY/WX    TMP DP  RH WIND       PRES   REMARKS
PATUXENT RIVER SUNNY     84  70  62 NW8       29.94R
ST INIGOES     SUNNY     82  75  79 SW5       29.94R
LEONARDTOWN*   SUNNY     81  70  69 W3        29.96S

$$

MDZ003>005-231300-
NORTH CENTRAL MARYLAND

CITY           SKY/WX    TMP DP  RH WIND       PRES   REMARKS
FREDERICK*     SUNNY     82  72  69 W3        29.99S
HAGERSTOWN APT SUNNY     81  68  64 W6        29.98S

$$

MDZ501>502-231300-
WESTERN MARYLAND

CITY           SKY/WX    TMP DP  RH WIND       PRES   REMARKS
OAKLAND*       FOG       64  64 100 W8        30.13S VSB<1/4
CUMBERLAND*    MOSUNNY   77  70  78 S5        30.04S

$$

VAZ025>031-231300-
SHENANDOAH VALLEY

CITY           SKY/WX    TMP DP  RH WIND       PRES   REMARKS
WINCHESTER*    FAIR      79  68  69 S6        30.00S
FRONT ROYAL*   FAIR      73  70  88 S3        30.00S
LURAY*         FAIR      72  72 100 CALM      30.03R
NEW MARKET*    FAIR     N/A N/A N/A CALM      30.03R
STAUNTON*      FAIR      70  68  92 CALM      30.06S
WAYNESBORO*    FAIR      72  67  85 CALM      30.05S

$$

WVZ021-048>050-054>055-231300-
EASTERN WEST VIRGINIA PANHANDLE

CITY           SKY/WX    TMP DP  RH WIND       PRES   REMARKS
MARTINSBURG    FAIR      81  67  62 SW7       29.98R
PETERSBURG*    FAIR      71  68  90 CALM      30.04R FOG

$$

VAZ036>039-050-231300-
CENTRAL FOOTHILLS

CITY           SKY/WX    TMP DP  RH WIND       PRES   REMARKS
CHARLOTTESVILL FAIR      81  70  69 CALM      29.99R
CULPEPER*      FAIR      77  74  92 CALM      29.99R
ORANGE*          N/A     79  73  83 CALM      30.00S
GORDONSVILLE*  FAIR      75  72  91 CALM      29.97F
WARRENTON*     FAIR      77  71  79 CALM      29.97S

$$

VAZ055>057-231300-
NORTH AND CENTRAL PIEDMONT

CITY           SKY/WX    TMP DP  RH WIND       PRES   REMARKS
FREDERICKSBRG* FAIR      78  75  92 CALM      29.96R
STAFFORD*      FAIR      77  71  80 CALM      30.00S

$$

NCZ024-NYZ072-PAZ021-071-VAZ022-071-231300-
OTHER REGIONAL OBSERVATIONS

CITY           SKY/WX    TMP DP  RH WIND       PRES   REMARKS
NEW YORK CITY  MOSUNNY   81  64  56 W8        29.89R
PHILADELPHIA   MOSUNNY   82  70  66 W7        29.91R
PITTSBURGH     MOSUNNY   73  68  84 SW5       30.02S
ROANOKE        FAIR      76  68  76 W3        30.06S
RICHMOND       FAIR      79  74  84 CALM      29.96S
RALEIGH        MOSUNNY   77  72  84 W5        30.00R

$$

ANZ530>537-231300-
MARINE OBSERVATIONS

STATION/POSITION TIME  TEMP    WIND        PRES
                       AIR SEA DIR/SP/G
                 (UTC) (F)     (DEG/KT/KT) (MB)
THOMAS PT LIGHT  1200   82 81  310/ 11/ 12 1015.0R
BALT KEY BRIDGE  1148   83     290/ 11/ 13 1013.5R
COVE POINT       1148   82     330/  4/  5 1014.5R
LEWISETTA        1148   80 83  270/  6/  7 1013.7R
SOLOMONS ISLAND  1148   83 83  290/  3/  5   N/A
PINEY POINT      1148          290/  5/  5   N/A

$$





USA.gov is the U.S. government's official web portal to all federal, state and local government web resources and services.